Location: Tel Aviv
(32.0670°N, 34.7670°E)
Time: 01:47:10
(UTC+02:00)

Envisat - Pass Details

Date: 01 December 2021
Orbit: 764 x 766 km, 98.2° (Epoch: 26 January)

Event Time Altitude Azimuth Distance (km) Brightness Sun altitude
Rises 17:16:56 0° 214° (SW) 3,217 7.2 -8.8°
Reaches altitude 10° 17:20:42 10° 243° (WSW) 2,297 7.1 -9.5°
Maximum altitude 17:22:46 12° 268° (W) 2,134 6.6 -10.0°
Drops below altitude 10° 17:24:51 10° 292° (WNW) 2,303 6.2 -10.4°
Sets 17:28:40 0° 321° (NW) 3,234 6.5 -11.1°
